Location: Williams Chapel
(35.3368°N, 89.8362°W)
Time: 05:11:14
(UTC+00:00)

Hubble Space Telescope - Visible Passes

Search period start: 11 October 2024 00:00
Search period end: 21 October 2024 00:00
Orbit: 503 x 507 km, 28.5° (Epoch: 10 October)

Date Brightness Start Highest point End Pass type
(mag) Time Alt. Az. Time Alt. Az. Time Alt. Az.
15 Oct 3.1 01:13:24 10° SSW 01:14:10 12° S 01:14:10 12° S visible
16 Oct 2.6 00:51:37 10° SSW 00:53:57 16° SSE 00:53:57 16° SSE visible
17 Oct 2.5 00:29:49 10° SSW 00:32:28 17° SSE 00:33:39 16° SE visible
18 Oct 2.5 00:08:00 10° SSW 00:10:48 19° SSE 00:13:16 11° ESE visible
18 Oct 3.5 01:47:18 10° WSW 01:47:55 13° SW 01:47:55 13° SW visible
18 Oct 2.5 23:46:11 10° SSW 23:49:05 20° SSE 23:51:59 10° ESE visible
19 Oct 2.7 01:25:35 10° WSW 01:27:28 22° SW 01:27:28 22° SW visible
20 Oct 2.0 01:03:51 10° WSW 01:06:58 29° S 01:06:58 29° S visible
